User: anonymous   Login
Location: Laterina
(43.5167°N, 11.7167°E)
Time: 12:49:52
(UTC+00:00)
Language:

Resurs 1-3 - Orbit

View from above orbital plane
View from above orbital plane
View from above satellite
View from above satellite

Ground track
Ground track

The orbit data is extracted from the following two-line orbital elements,

1 23342U 94074A   20331.14110547  .00000177  00000-0  30619-4 0  9998
2 23342  97.9089  17.6713 0001086 133.0720 227.0582 14.79356017403763
Epoch (UTC): 26 November 2020 03:23:11
Eccentricity: 0.0001086
inclination: 97.9089°
perigee height: 630 km
apogee height: 632 km
right ascension of ascending node: 17.6713°
argument of perigee: 133.0720°
revolutions per day: 14.79356017
mean anomaly at epoch: 227.0582°
orbit number at epoch: 40376

The dashed part of the orbit path shows where the satellite is in the earth's shadow,  

DLR